KLM63U EHAM-LGAV

Flight info

Callsign KLM63U
Flight time N/A
Altitude 35000
Route EDUPO Z739 MISGO DCT DOJOH DCT DODEN DCT NEGIX DCT DINKU M867 XERUM DCT BAVAX DCT RADIZ DCT LUMUS DCT GORPA DCT ELTIB DCT PINDO DCT PIKOS UL607 XORKI
Aircraft B738/M-SDE2E3FGHIRWXY/LB1

Departure

Time 2026-04-27 10:09
Airport Amsterdam Airport Schiphol (EHAM)

Arrival

Time N/A
Airport Athens Eleftherios Venizelos International Airport (LGAV)
Time Latitude Longitude Altitude Speed Heading
2026-04-27 09:31 52.30463 4.76782 -2 ft 0 kts 322°
2026-04-27 09:46 52.30462 4.76784 -2 ft 1 kts 322°
2026-04-27 09:46 52.30448 4.76801 -2 ft 3 kts 318°
2026-04-27 09:46 52.30434 4.76824 -2 ft 3 kts 301°
2026-04-27 09:46 52.30428 4.76851 -2 ft 3 kts 261°
2026-04-27 09:47 52.30429 4.76863 -2 ft 0 kts 248°
2026-04-27 09:52 52.30427 4.76856 -2 ft 2 kts 246°
2026-04-27 09:52 52.30412 4.76821 -2 ft 5 kts 232°
2026-04-27 09:52 52.30389 4.76766 -2 ft 8 kts 238°
2026-04-27 09:53 52.30347 4.76657 -2 ft 15 kts 238°
2026-04-27 09:53 52.30285 4.76496 -2 ft 18 kts 239°
2026-04-27 09:53 52.30218 4.76321 -2 ft 18 kts 238°
2026-04-27 09:53 52.30154 4.76154 -2 ft 17 kts 238°
2026-04-27 09:54 52.30092 4.75990 -2 ft 17 kts 238°
2026-04-27 09:54 52.30032 4.75837 -2 ft 16 kts 237°
2026-04-27 09:54 52.29972 4.75688 -2 ft 15 kts 237°
2026-04-27 09:54 52.29919 4.75542 -2 ft 15 kts 239°
2026-04-27 09:55 52.29866 4.75404 -2 ft 14 kts 237°
2026-04-27 09:55 52.29829 4.75256 -2 ft 14 kts 265°
2026-04-27 09:55 52.29936 4.75020 -2 ft 13 kts 311°
2026-04-27 09:56 52.30001 4.74900 -2 ft 15 kts 311°
2026-04-27 09:56 52.30071 4.74771 0 ft 15 kts 310°
2026-04-27 09:56 52.30138 4.74647 9 ft 14 kts 310°
2026-04-27 09:56 52.30209 4.74515 9 ft 17 kts 312°
2026-04-27 09:57 52.30293 4.74359 7 ft 21 kts 311°
2026-04-27 09:57 52.30414 4.74201 -2 ft 23 kts 351°
2026-04-27 09:57 52.30568 4.74207 -2 ft 22 kts
2026-04-27 09:57 52.30720 4.74221 -2 ft 21 kts
2026-04-27 09:58 52.30866 4.74233 -2 ft 21 kts
2026-04-27 09:58 52.31008 4.74248 -2 ft 20 kts
2026-04-27 09:58 52.31144 4.74262 -2 ft 19 kts
2026-04-27 09:58 52.31278 4.74272 -2 ft 19 kts
2026-04-27 09:59 52.31407 4.74284 -2 ft 18 kts
2026-04-27 09:59 52.31531 4.74297 -2 ft 18 kts
2026-04-27 09:59 52.31652 4.74308 -2 ft 17 kts
2026-04-27 09:59 52.31766 4.74318 -2 ft 16 kts
2026-04-27 10:00 52.31877 4.74329 -2 ft 16 kts
2026-04-27 10:00 52.31985 4.74337 -2 ft 15 kts 356°
2026-04-27 10:00 52.32031 4.74209 -2 ft 14 kts 273°
2026-04-27 10:00 52.32037 4.74047 -3 ft 14 kts 274°
2026-04-27 10:01 52.32042 4.73895 -3 ft 13 kts 273°
2026-04-27 10:01 52.32048 4.73746 -2 ft 13 kts 273°
2026-04-27 10:01 52.32053 4.73596 -2 ft 14 kts 273°
2026-04-27 10:01 52.32059 4.73443 -2 ft 13 kts 284°
2026-04-27 10:02 52.32110 4.73326 -2 ft 13 kts 319°
2026-04-27 10:02 52.32176 4.73233 -2 ft 13 kts 319°
2026-04-27 10:02 52.32244 4.73139 -2 ft 12 kts 319°
2026-04-27 10:02 52.32308 4.73048 -2 ft 12 kts 319°
2026-04-27 10:03 52.32376 4.72953 -2 ft 14 kts 320°
2026-04-27 10:03 52.32449 4.72850 -2 ft 14 kts 319°
2026-04-27 10:03 52.32541 4.72721 -2 ft 20 kts 319°
2026-04-27 10:03 52.32647 4.72570 -2 ft 20 kts 318°
2026-04-27 10:04 52.32741 4.72405 -2 ft 20 kts 311°
2026-04-27 10:04 52.32830 4.72240 -2 ft 19 kts 310°
2026-04-27 10:04 52.32915 4.72083 -2 ft 18 kts 310°
2026-04-27 10:04 52.32998 4.71929 -2 ft 18 kts 311°
2026-04-27 10:05 52.33079 4.71782 -2 ft 17 kts 312°
2026-04-27 10:05 52.33147 4.71632 -2 ft 16 kts 288°
2026-04-27 10:05 52.33113 4.71470 -2 ft 16 kts 223°
2026-04-27 10:05 52.33032 4.71356 -2 ft 15 kts 223°
2026-04-27 10:06 52.32956 4.71246 -2 ft 14 kts 221°
2026-04-27 10:06 52.32882 4.71141 -2 ft 14 kts 220°
2026-04-27 10:06 52.32864 4.70999 -3 ft 13 kts 275°
2026-04-27 10:06 52.32865 4.70974 -3 ft 0 kts 275°
2026-04-27 10:07 52.32865 4.70973 -3 ft 1 kts 275°
2026-04-27 10:07 52.32866 4.70949 -3 ft 3 kts 276°
2026-04-27 10:07 52.32888 4.70899 -3 ft 7 kts 334°
2026-04-27 10:07 52.32942 4.70899 -4 ft 13 kts
2026-04-27 10:08 52.33212 4.70924 -5 ft 70 kts
2026-04-27 10:08 52.33896 4.70986 -2 ft 124 kts
2026-04-27 10:08 52.34902 4.71085 38 ft 162 kts
2026-04-27 10:08 52.36067 4.71211 487 ft 171 kts
2026-04-27 10:09 52.37270 4.71329 1063 ft 175 kts
2026-04-27 10:09 52.38525 4.71445 1644 ft 184 kts
2026-04-27 10:09 52.39875 4.71575 1994 ft 204 kts
2026-04-27 10:09 52.41336 4.71725 2270 ft 219 kts
2026-04-27 10:10 52.42833 4.72326 2595 ft 229 kts 26°
2026-04-27 10:10 52.44241 4.73578 3123 ft 231 kts 30°
2026-04-27 10:10 52.45616 4.74923 3735 ft 231 kts 30°
2026-04-27 10:10 52.47007 4.76301 4162 ft 243 kts 37°
2026-04-27 10:11 52.48018 4.78619 4562 ft 258 kts 72°
2026-04-27 10:11 52.48291 4.81546 5213 ft 264 kts 83°
2026-04-27 10:11 52.48431 4.84555 5809 ft 270 kts 84°
2026-04-27 10:11 52.48574 4.87662 6484 ft 274 kts 85°
2026-04-27 10:12 52.48361 4.90752 7070 ft 280 kts 112°
2026-04-27 10:12 52.47224 4.93346 7751 ft 280 kts 139°
2026-04-27 10:12 52.45673 4.95284 8392 ft 285 kts 145°
2026-04-27 10:12 52.44033 4.97142 9001 ft 289 kts 146°
2026-04-27 10:13 52.42352 4.99026 9629 ft 292 kts 146°
2026-04-27 10:13 52.40676 5.00923 10359 ft 293 kts 146°
2026-04-27 10:13 52.38990 5.02853 10686 ft 306 kts 145°
2026-04-27 10:13 52.37185 5.04931 10846 ft 325 kts 145°
2026-04-27 10:14 52.35291 5.07116 10995 ft 344 kts 145°
2026-04-27 10:14 52.33287 5.09482 11154 ft 361 kts 141°
2026-04-27 10:14 52.31499 5.12387 11540 ft 371 kts 132°
2026-04-27 10:14 52.29830 5.15594 12095 ft 374 kts 131°
2026-04-27 10:15 52.28131 5.18870 12738 ft 376 kts 132°
2026-04-27 10:15 52.26672 5.21589 13202 ft 381 kts 133°
2026-04-27 10:15 52.24913 5.24801 13745 ft 385 kts 134°
2026-04-27 10:15 52.23171 5.28186 14316 ft 390 kts 129°
2026-04-27 10:16 52.21600 5.31768 14849 ft 394 kts 126°
2026-04-27 10:16 52.20041 5.35503 15384 ft 399 kts 126°
2026-04-27 10:16 52.18463 5.39276 15917 ft 403 kts 126°
2026-04-27 10:16 52.16870 5.43022 16444 ft 407 kts 126°
2026-04-27 10:17 52.15229 5.46823 16958 ft 412 kts 126°
2026-04-27 10:17 52.13572 5.50627 17415 ft 418 kts 127°
2026-04-27 10:17 52.11869 5.54519 17916 ft 422 kts 127°
2026-04-27 10:17 52.10149 5.58443 18422 ft 426 kts 127°
2026-04-27 10:18 52.08430 5.62360 18869 ft 430 kts 127°
2026-04-27 10:18 52.06696 5.66308 19349 ft 433 kts 127°
2026-04-27 10:18 52.04860 5.70232 19855 ft 433 kts 131°
2026-04-27 10:18 52.02889 5.73901 20328 ft 435 kts 134°
2026-04-27 10:19 52.00846 5.77589 20786 ft 438 kts 134°
2026-04-27 10:19 51.98837 5.81274 21233 ft 440 kts 133°
2026-04-27 10:19 51.96813 5.85045 21670 ft 443 kts 133°
2026-04-27 10:19 51.94775 5.88849 22112 ft 446 kts 133°
2026-04-27 10:20 51.92754 5.92616 22518 ft 449 kts 134°
2026-04-27 10:20 51.90696 5.96444 22936 ft 451 kts 134°
2026-04-27 10:20 51.88622 6.00298 23328 ft 454 kts 134°
2026-04-27 10:20 51.86555 6.04128 23734 ft 456 kts 134°
2026-04-27 10:21 51.84450 6.08015 24086 ft 459 kts 134°
2026-04-27 10:21 51.82317 6.11922 24405 ft 461 kts 134°
2026-04-27 10:21 51.80201 6.15788 24719 ft 464 kts 134°
2026-04-27 10:21 51.78046 6.19721 25034 ft 466 kts 134°
2026-04-27 10:22 51.75906 6.23625 25339 ft 469 kts 134°
2026-04-27 10:22 51.73735 6.27588 25643 ft 471 kts 134°
2026-04-27 10:22 51.71551 6.31573 25933 ft 473 kts 134°
2026-04-27 10:22 51.69393 6.35508 26211 ft 476 kts 134°
2026-04-27 10:23 51.67185 6.39531 26497 ft 478 kts 134°
2026-04-27 10:23 51.64963 6.43568 26790 ft 480 kts 134°
2026-04-27 10:23 51.62765 6.47554 27038 ft 482 kts 134°
2026-04-27 10:23 51.60521 6.51613 27332 ft 484 kts 134°
2026-04-27 10:24 51.55122 6.61362 27957 ft 488 kts 135°
2026-04-27 10:24 51.45969 6.77817 28925 ft 496 kts 135°
2026-04-27 10:24 51.36707 6.93931 30281 ft 492 kts 139°
2026-04-27 10:24 51.26795 7.08975 31545 ft 486 kts 140°
2026-04-27 10:25 51.17076 7.23763 32542 ft 486 kts 139°
2026-04-27 10:25 51.07362 7.38670 33689 ft 481 kts 140°
2026-04-27 10:25 50.97678 7.53401 34573 ft 480 kts 140°
2026-04-27 10:25 50.88079 7.67906 35259 ft 481 kts 140°
2026-04-27 10:26 50.68255 7.97420 35289 ft 493 kts 140°
2026-04-27 10:26 50.50045 8.29061 35225 ft 487 kts 129°
2026-04-27 10:27 50.33201 8.61397 35234 ft 474 kts 135°
2026-04-27 10:27 50.14804 8.91499 35289 ft 485 kts 135°
2026-04-27 10:28 49.96132 9.22304 35277 ft 494 kts 135°
2026-04-27 10:28 49.77212 9.53078 35196 ft 485 kts 135°
2026-04-27 10:29 49.58790 9.82679 35220 ft 475 kts 136°
2026-04-27 10:29 49.40324 10.12015 35277 ft 484 kts 135°
2026-04-27 10:30 49.20964 10.41432 35240 ft 493 kts 148°
2026-04-27 10:30 48.97462 10.61986 35246 ft 484 kts 150°
2026-04-27 10:31 48.75714 10.84979 35229 ft 473 kts 130°
2026-04-27 10:31 48.58341 11.14958 35262 ft 479 kts 132°
2026-04-27 10:32 48.40094 11.45029 35227 ft 492 kts 132°
2026-04-27 10:32 48.21486 11.74711 35187 ft 485 kts 137°
2026-04-27 10:33 48.01718 12.01193 35187 ft 473 kts 137°
2026-04-27 10:33 47.82156 12.27721 35235 ft 477 kts 138°
2026-04-27 10:34 47.62216 12.54437 35157 ft 490 kts 136°
2026-04-27 10:34 47.43825 12.83975 35166 ft 483 kts 132°
2026-04-27 10:35 47.28750 13.07791 35100 ft 473 kts 133°
2026-04-27 10:35 47.07729 13.40761 35196 ft 479 kts 133°
2026-04-27 10:36 46.92368 13.64580 35205 ft 488 kts 133°
2026-04-27 10:36 46.73732 13.93190 35139 ft 483 kts 133°
2026-04-27 10:37 46.55264 14.21223 35152 ft 471 kts 133°
2026-04-27 10:37 46.37074 14.48243 35202 ft 473 kts 133°
2026-04-27 10:38 46.18358 14.75813 35220 ft 486 kts 133°
2026-04-27 10:38 45.99334 15.03537 35191 ft 485 kts 133°
2026-04-27 10:39 45.80460 15.30767 35195 ft 475 kts 134°
2026-04-27 10:39 45.59651 15.53447 35250 ft 472 kts 145°
2026-04-27 10:40 45.38048 15.75309 35273 ft 484 kts 144°
2026-04-27 10:40 45.15914 15.97571 35213 ft 486 kts 144°
2026-04-27 10:41 44.94024 16.19377 35174 ft 474 kts 145°
2026-04-27 10:41 44.72662 16.40455 35207 ft 468 kts 146°
2026-04-27 10:42 44.51112 16.61526 35217 ft 479 kts 146°
2026-04-27 10:42 44.29099 16.82927 35145 ft 482 kts 144°
2026-04-27 10:43 44.08748 17.06947 35126 ft 473 kts 141°
2026-04-27 10:43 43.88772 17.30050 35174 ft 467 kts 142°
2026-04-27 10:44 43.68599 17.53205 35190 ft 478 kts 143°
2026-04-27 10:44 43.47927 17.76724 35135 ft 481 kts 143°
2026-04-27 10:45 43.27457 17.99801 35086 ft 471 kts 143°
2026-04-27 10:45 43.19670 18.08522 35112 ft 468 kts 143°
2026-04-27 10:46 43.14645 18.14132 35114 ft 467 kts 143°
2026-04-27 10:46 43.09574 18.19780 35153 ft 474 kts 143°
2026-04-27 10:47 43.04405 18.25526 35140 ft 478 kts 143°
2026-04-27 10:47 42.99006 18.31518 35145 ft 479 kts 143°
2026-04-27 10:48 42.91802 18.39493 35144 ft 480 kts 143°
2026-04-27 10:48 42.81401 18.50959 35157 ft 481 kts 143°
2026-04-27 10:49 42.73249 18.59910 35132 ft 481 kts 144°
2026-04-27 10:49 42.68044 18.65610 35135 ft 480 kts 143°